Location: Losili
(4.4086°N, 32.7049°E)
Time: 06:02:02
(UTC+00:00)

Cosmos 2251 Rocket - Pass Details

Date: 18 September 2019
Orbit: 764 x 792 km, 74.0° (Epoch: 21 October)

Event Time Altitude Azimuth Distance (km) Brightness Sun altitude
Rises 17:32:45 0° 346° (NNW) 3,273 7.0 -27.1°
Reaches altitude 10° 17:35:08 10° 345° (NNW) 2,344 6.2 -27.7°
Enters shadow 17:39:38 64° 333° (NNW) 870 3.8 -28.8°
